Rensselaer, IN

1:44 PM CDT on May 24, 2018 (GMT -0500)
Jasper County

Weather History for KRZL - June, 2012

Change the Weather History Date:

Sunday, June 10, 2012

  Actual Average (KIKK) Record (KIKK)
Temperature  
Mean Temperature 76 °F -  
Max Temperature 89 °F 80 °F 94 °F (2016)
Min Temperature 64 °F 56 °F 35 °F (2004)
Cooling Degree Days 12    
Growing Degree Days 26 (Base 50)    
Moisture  
Dew Point 54 °F    
Average Humidity 45    
Maximum Humidity 68    
Minimum Humidity 27    
Precipitation  
Precipitation 0.00 in - - ()
Sea Level Pressure  
Sea Level Pressure 29.96 in    
Wind  
Wind Speed 7 mph (SSE)    
Max Wind Speed 18 mph    
Max Gust Speed 24 mph    
Visibility 10 miles    
Events      
Averages and records for this station are not official NWS values.
T = Trace of Precipitation, MM = Missing Value Source: NWS Daily Summary

Daily Weather History Graph

Daily Weather History Graph

Search for Another Location

Airport or City:

Astronomy

Jun. 10, 2012 Rise Set
Actual Time 5:16 AM CDT 8:20 PM CDT
Civil Twilight 4:42 AM CDT 8:53 PM CDT
Nautical Twilight 4:00 AM CDT 9:36 PM CDT
Astronomical Twilight 3:10 AM CDT 10:26 PM CDT
Moon 12:10 AM CDT (6/10) 12:07 PM CDT (6/10)
Length of Visible Light 16h 10m
Length of Day
15h 04m
Waning Gibbous, 58% of the Moon is Illuminated
Jun 10
Waning Gibbous
Jun 11
Last Quarter
Jun 19
New
Jun 26
First Quarter
Jul 3
Full

Hourly Weather History & Observations

Time (CDT) Temp. Heat Index Dew Point Humidity Pressure Visibility Wind Dir Wind Speed Gust Speed Precip Events Conditions
12:15 AM 69.8 °F - 50.0 °F 49% 29.94 in 10.0 mi South 5.8 mph - N/A   Clear
12:35 AM 69.8 °F - 50.0 °F 49% 29.94 in 10.0 mi South 5.8 mph - N/A   Clear
12:55 AM 69.8 °F - 50.0 °F 49% 29.94 in 10.0 mi SSE 5.8 mph - N/A   Clear
1:15 AM 68.0 °F - 50.0 °F 52% 29.94 in 10.0 mi SSE 5.8 mph - N/A   Clear
1:35 AM 68.0 °F - 50.0 °F 52% 29.94 in 10.0 mi SSE 3.5 mph - N/A   Clear
1:55 AM 68.0 °F - 51.8 °F 56% 29.94 in 10.0 mi SSE 4.6 mph - N/A   Clear
2:15 AM 68.0 °F - 51.8 °F 56% 29.95 in 10.0 mi SSE 3.5 mph - N/A   Clear
2:35 AM 68.0 °F - 51.8 °F 56% 29.95 in 10.0 mi SE 4.6 mph - N/A   Clear
2:55 AM 68.0 °F - 51.8 °F 56% 29.95 in 10.0 mi SSE 4.6 mph - N/A   Clear
3:15 AM 68.0 °F - 51.8 °F 56% 29.96 in 10.0 mi SE 4.6 mph - N/A   Clear
3:35 AM 64.4 °F - 53.6 °F 68% 29.96 in 10.0 mi SSE 4.6 mph - N/A   Scattered Clouds
3:55 AM 64.4 °F - 53.6 °F 68% 29.96 in 10.0 mi SSE 4.6 mph - N/A   Scattered Clouds
4:15 AM 64.4 °F - 53.6 °F 68% 29.96 in 10.0 mi SSE 4.6 mph - N/A   Clear
4:55 AM 64.4 °F - 53.6 °F 68% 29.97 in 10.0 mi Calm Calm - N/A   Clear
5:15 AM 64.4 °F - 53.6 °F 68% 29.98 in 10.0 mi Calm Calm - N/A   Clear
5:35 AM 64.4 °F - 53.6 °F 68% 29.98 in 10.0 mi Calm Calm - N/A   Clear
5:55 AM 64.4 °F - 53.6 °F 68% 29.99 in 10.0 mi Calm Calm - N/A   Clear
6:15 AM 66.2 °F - 55.4 °F 68% 29.99 in 10.0 mi Calm Calm - N/A   Clear
6:35 AM 68.0 °F - 55.4 °F 64% 30.00 in 10.0 mi Calm Calm - N/A   Clear
6:55 AM 69.8 °F - 55.4 °F 60% 30.00 in 10.0 mi SSE 4.6 mph - N/A   Clear
7:15 AM 71.6 °F - 57.2 °F 60% 30.00 in 10.0 mi SSE 4.6 mph - N/A   Clear
7:55 AM 73.4 °F - 57.2 °F 57% 30.01 in 10.0 mi South 5.8 mph - N/A   Clear
8:15 AM 75.2 °F - 57.2 °F 53% 30.01 in 10.0 mi South 6.9 mph - N/A   Clear
8:35 AM 77.0 °F - 57.2 °F 50% 30.00 in 10.0 mi SSE 5.8 mph - N/A   Clear
8:55 AM 78.8 °F - 57.2 °F 47% 30.00 in 10.0 mi SSE 5.8 mph - N/A   Clear
9:15 AM 78.8 °F - 57.2 °F 47% 30.00 in 10.0 mi South 5.8 mph - N/A   Clear
9:35 AM 80.6 °F 80.8 °F 57.2 °F 45% 30.01 in 10.0 mi South 5.8 mph - N/A   Clear
9:55 AM 82.4 °F 81.7 °F 55.4 °F 39% 30.01 in 10.0 mi SSW 9.2 mph - N/A   Clear
10:15 AM 82.4 °F 81.4 °F 53.6 °F 37% 30.01 in 10.0 mi SSW 9.2 mph - N/A   Clear
10:35 AM 84.2 °F - 51.8 °F 33% 30.01 in 10.0 mi South 9.2 mph - N/A   Clear
10:55 AM 86.0 °F 84.2 °F 53.6 °F 33% 30.01 in 10.0 mi South 10.4 mph - N/A   Clear
11:15 AM 86.0 °F - 51.8 °F 31% 30.01 in 10.0 mi SSE 10.4 mph 18.4 mph N/A   Clear
11:35 AM 86.0 °F - 51.8 °F 31% 30.01 in 10.0 mi South 9.2 mph 17.3 mph N/A   Clear
11:55 AM 86.0 °F - 51.8 °F 31% 30.01 in 10.0 mi South 12.7 mph - N/A   Scattered Clouds
12:15 PM 87.8 °F - 51.8 °F 29% 30.00 in 10.0 mi SE 13.8 mph - N/A   Scattered Clouds
12:35 PM 86.0 °F - 51.8 °F 31% 29.99 in 10.0 mi SE 10.4 mph - N/A   Scattered Clouds
12:55 PM 87.8 °F - 51.8 °F 29% 29.99 in 10.0 mi SE 13.8 mph - N/A   Clear
1:15 PM 87.8 °F - 51.8 °F 29% 29.99 in 10.0 mi SSE 12.7 mph 18.4 mph N/A   Clear
1:35 PM 87.8 °F - 51.8 °F 29% 29.98 in 10.0 mi SE 12.7 mph - N/A   Scattered Clouds
1:55 PM 87.8 °F - 51.8 °F 29% 29.97 in 10.0 mi SSE 13.8 mph 20.7 mph N/A   Scattered Clouds
2:15 PM 89.6 °F - 51.8 °F 27% 29.96 in 10.0 mi SE 11.5 mph 18.4 mph N/A   Scattered Clouds
2:35 PM 87.8 °F - 51.8 °F 29% 29.96 in 10.0 mi SE 11.5 mph - N/A   Scattered Clouds
2:55 PM 87.8 °F - 51.8 °F 29% 29.95 in 10.0 mi SE 16.1 mph - N/A   Scattered Clouds
3:15 PM 87.8 °F - 50.0 °F 27% 29.95 in 10.0 mi SE 13.8 mph 20.7 mph N/A   Scattered Clouds
3:35 PM 87.8 °F - 50.0 °F 27% 29.94 in 10.0 mi SSE 15.0 mph - N/A   Scattered Clouds
3:55 PM 87.8 °F - 51.8 °F 29% 29.94 in 10.0 mi SE 10.4 mph - N/A   Scattered Clouds
4:35 PM 89.6 °F - 51.8 °F 27% 29.94 in 10.0 mi SSE 15.0 mph 21.9 mph N/A   Scattered Clouds
4:55 PM 87.8 °F - 51.8 °F 29% 29.94 in 10.0 mi South 18.4 mph 24.2 mph N/A   Clear
5:15 PM 87.8 °F - 51.8 °F 29% 29.93 in 10.0 mi SSE 11.5 mph 23.0 mph N/A   Clear
5:35 PM 86.0 °F - 51.8 °F 31% 29.93 in 10.0 mi South 9.2 mph 17.3 mph N/A   Clear
5:55 PM 86.0 °F - 51.8 °F 31% 29.93 in 10.0 mi SSE 6.9 mph 17.3 mph N/A   Clear
6:15 PM 87.8 °F - 51.8 °F 29% 29.93 in 10.0 mi South 13.8 mph 17.3 mph N/A   Clear
6:35 PM 86.0 °F 84.2 °F 53.6 °F 33% 29.93 in 10.0 mi SSE 15.0 mph 18.4 mph N/A   Mostly Cloudy
6:55 PM 86.0 °F 84.2 °F 53.6 °F 33% 29.92 in 10.0 mi South 11.5 mph 17.3 mph N/A   Scattered Clouds
7:15 PM 82.4 °F 81.4 °F 53.6 °F 37% 29.93 in 10.0 mi South 10.4 mph - N/A   Clear
7:55 PM 82.4 °F 81.4 °F 53.6 °F 37% 29.93 in 10.0 mi South 9.2 mph - N/A   Clear
8:15 PM 80.6 °F 80.5 °F 55.4 °F 42% 29.92 in 10.0 mi SSE 6.9 mph - N/A   Clear
8:35 PM 78.8 °F - 55.4 °F 44% 29.92 in 10.0 mi SSE 8.1 mph - N/A   Clear
8:55 PM 78.8 °F - 55.4 °F 44% 29.92 in 10.0 mi SSE 6.9 mph - N/A   Clear
9:15 PM 78.8 °F - 57.2 °F 47% 29.92 in 10.0 mi SSE 8.1 mph - N/A   Clear
9:35 PM 77.0 °F - 57.2 °F 50% 29.93 in 10.0 mi SSE 8.1 mph - N/A   Clear
9:55 PM 77.0 °F - 57.2 °F 50% 29.93 in 10.0 mi SSE 8.1 mph - N/A   Clear
10:15 PM 77.0 °F - 59.0 °F 54% 29.93 in 10.0 mi South 11.5 mph - N/A   Clear
10:35 PM 77.0 °F - 57.2 °F 50% 29.93 in 10.0 mi SSE 9.2 mph - N/A   Clear
10:55 PM 77.0 °F - 57.2 °F 50% 29.94 in 10.0 mi South 10.4 mph - N/A   Clear
11:15 PM 75.2 °F - 55.4 °F 50% 29.94 in 10.0 mi South 6.9 mph - N/A   Clear
11:35 PM 75.2 °F - 55.4 °F 50% 29.93 in 10.0 mi South 5.8 mph - N/A   Clear
11:55 PM 73.4 °F - 57.2 °F 57% 29.93 in 10.0 mi South 5.8 mph - N/A   Clear